Helicity
-21 -30 -34 -35 -37 -41 -31 -8 4 15 7 -12 -11 -0 -28 3 31 13 112 101 103 108 50 4 23 28 44 52 49 56 131 122 143 209 210 202 225 175 154 167 219 254 304 187 108
-24 -35 -45 -54 -61 -56 -35 -12 20 26 22 -4 -29 33 -8 -10 40 19 105 94 100 82 32 15 23 31 51 48 63 117 136 118 159 206 192 183 213 174 226 302 279 262 259 234 185
-25 -40 -52 -60 -57 -57 -52 15 20 10 29 20 -16 38 4 26 21 37 141 117 113 88 25 17 25 48 61 52 67 96 146 124 164 197 191 196 201 211 307 328 213 247 202 167 128
-26 -34 -47 -56 -61 -56 -38 44 19 -14 13 39 -22 44 15 -0 18 62 105 98 42 58 27 23 16 53 74 93 52 138 110 135 173 209 207 217 203 279 304 262 166 212 145 120 69
-16 -20 -41 -50 -49 -34 2 55 27 -42 -38 33 -10 -17 12 -31 20 133 93 33 22 78 74 20 16 52 75 97 92 135 137 129 165 208 199 224 205 279 252 173 176 186 151 104 78
-3 -9 -27 -38 -40 -24 4 25 60 9 -58 8 -20 -29 -3 8 121 126 25 4 40 56 51 45 14 51 95 113 110 109 122 108 153 226 230 248 154 287 279 246 204 140 98 80 84
-2 -11 -14 -25 -31 -27 -8 -1 47 58 -28 -53 -43 6 -24 8 87 83 -18 16 27 42 51 40 4 9 85 117 102 111 115 144 194 192 279 242 113 216 243 192 190 113 98 104 63
3 -6 -13 -16 -25 -32 -15 5 52 73 -33 -21 3 15 -10 27 43 9 -3 15 13 40 36 23 27 32 77 74 101 120 173 150 247 214 200 239 246 288 201 164 151 117 117 100 62
8 -3 -4 -12 -25 -44 -29 53 54 -3 -33 -22 11 19 -9 13 46 35 32 28 26 55 47 37 61 46 30 57 60 122 181 242 128 273 214 276 211 291 226 82 55 63 136 122 103
13 -8 -5 -7 -25 -33 -23 26 3 -25 -43 7 11 26 10 12 50 74 21 35 35 20 70 78 79 70 27 13 50 147 193 266 290 228 224 174 220 221 254 139 109 80 101 152 107
23 3 -17 -20 -18 -21 -56 -1 11 16 100 19 -10 -2 -8 34 31 -2 53 32 42 54 78 69 55 44 31 51 114 178 273 316 281 204 174 257 193 133 214 232 98 69 93 104 85
23 18 3 -11 -20 -23 8 30 30 51 113 -27 3 4 13 37 8 15 22 62 51 19 23 68 59 47 48 135 122 165 232 219 162 226 209 205 99 129 175 198 168 93 101 94 125
24 31 22 -4 -41 -5 22 36 51 41 86 11 18 33 5 36 39 -3 17 29 38 36 30 90 68 58 101 128 84 154 211 257 300 183 270 195 144 136 133 181 196 148 119 146 163
24 30 11 -29 24 -2 9 11 24 31 78 11 8 15 27 46 52 32 22 33 37 54 56 90 79 72 87 114 139 146 270 242 187 256 230 215 323 170 250 165 228 228 189 151 153
26 26 -6 14 27 17 10 1 7 1 70 27 20 30 26 40 26 39 24 47 48 47 72 69 66 57 81 139 193 148 201 257 216 310 304 230 368 213 356 309 253 233 255 266 216
18 19 -6 -0 3 6 6 15 16 35 41 31 37 39 45 41 36 29 16 34 58 65 80 74 99 99 118 157 159 148 271 281 253 303 306 258 366 282 356 433 361 279 277 314 223
17 1 -6 1 11 16 27 22 25 54 22 13 29 41 46 31 43 28 7 -16 -49 20 55 49 100 129 170 132 129 125 128 137 298 311 378 422 327 327 309 371 393 292 248 229 211
8 27 6 -1 18 31 28 25 61 24 22 42 46 37 56 20 55 43 38 17 -2 -10 89 98 75 145 158 160 155 128 104 187 324 408 467 324 348 321 336 293 326 329 316 326 296
10 15 18 13 26 37 41 49 29 34 43 39 43 54 51 57 54 57 48 29 17 17 43 119 141 181 191 197 155 153 181 202 344 364 529 380 349 233 253 218 284 325 358 396 288
27 25 15 25 35 37 56 38 38 52 62 63 68 82 68 48 54 62 40 69 68 80 75 135 140 162 218 228 227 233 241 249 245 285 374 511 451 424 300 317 325 384 424 398 283
37 37 26 31 32 58 61 42 55 69 71 80 87 86 96 79 109 80 64 90 116 135 150 167 186 176 254 187 242 287 278 289 345 400 488 579 557 332 320 349 402 432 452 375 324
36 42 32 32 61 59 63 46 74 78 90 100 123 121 116 114 103 93 123 134 223 198 165 136 209 198 189 220 289 356 369 378 358 385 549 762 540 323 373 361 519 489 458 385 374
44 36 38 52 78 60 36 65 73 96 87 106 112 112 139 126 106 145 135 190 222 204 182 172 189 164 167 202 278 349 399 455 498 599 582 780 595 427 462 450 486 463 439 412 310
56 65 60 82 54 71 64 74 79 81 102 109 140 147 147 140 128 157 173 188 206 215 260 247 263 220 365 281 381 464 447 459 511 591 661 913 555 301 330 336 284 353 437 366 313
74 70 70 84 77 75 84 94 98 78 94 109 111 105 154 175 164 109 147 215 227 223 280 259 280 292 257 260 266 258 276 470 597 637 818 670 739 604 340 329 333 408 400 301 347
88 95 92 95 94 90 84 71 89 99 138 122 137 136 179 194 192 193 203 169 171 277 292 306 237 334 276 143 238 397 239 304 349 301 620 530 460 352 240 425 410 354 341 324 350
71 94 115 109 133 132 88 94 86 122 116 152 151 194 194 141 159 179 222 302 296 337 246 260 212 221 227 200 119 108 142 340 454 530 711 714 440 508 336 364 295 324 261 342 336
Wind_Speed
36 39 41 44 44 43 41 43 45 43 44 47 51 44 37 44 55 63 59 46 36 39 9 37 51 47 51 52 53 45 55 59 61 61 59 55 63 53 53 55 58 55 52 46 42
37 39 40 42 42 40 40 38 36 33 36 42 46 44 36 35 48 66 50 49 44 44 56 55 51 55 52 53 52 55 57 58 51 53 57 54 57 58 58 63 59 53 49 44 47
39 40 40 41 41 40 39 30 29 31 35 40 38 40 37 33 43 60 48 44 44 51 43 47 45 49 56 53 58 54 57 53 53 51 51 56 60 50 59 65 57 57 47 43 45
40 40 40 39 39 38 36 30 27 31 35 43 48 48 54 43 45 39 43 29 58 62 50 63 54 51 54 57 55 56 52 52 54 52 57 58 55 57 55 58 53 41 36 34 36
40 40 38 37 37 35 32 29 32 35 40 45 55 45 45 55 55 26 38 46 57 64 62 53 66 53 58 53 54 58 53 55 52 56 55 52 59 55 56 52 39 35 30 27 31
39 41 38 37 35 31 28 31 33 35 40 42 49 56 51 54 31 29 46 56 61 60 63 67 61 54 55 51 59 53 52 57 52 60 60 65 60 57 53 45 40 27 24 21 24
40 39 37 35 32 30 29 32 32 32 31 42 49 45 64 59 46 48 60 52 54 53 56 57 56 62 52 53 56 53 60 65 58 64 67 63 67 58 46 46 32 22 19 17 18
34 33 32 31 31 31 30 30 29 29 38 40 41 45 50 47 51 62 60 47 53 48 45 49 51 61 62 50 58 64 64 83 69 70 60 67 83 58 49 44 28 22 13 11 11
35 32 31 30 30 30 30 25 27 23 42 49 43 43 49 46 64 64 55 53 45 48 51 46 49 60 70 63 67 71 81 82 78 64 70 69 76 58 46 38 28 14 10 4 8
37 35 32 34 34 34 32 19 37 41 40 37 50 41 52 49 52 64 47 53 50 44 41 51 55 61 76 87 88 80 83 81 81 70 65 65 69 62 47 36 28 18 10 4 3
38 36 35 35 36 33 36 35 35 39 52 51 50 47 45 39 43 74 56 46 49 57 52 51 67 73 71 68 64 62 66 74 74 64 74 71 75 60 54 52 34 20 12 4 7
31 34 32 30 30 36 42 39 36 32 43 49 46 49 46 43 55 76 66 53 57 62 51 49 62 57 56 61 70 65 74 78 67 64 71 69 70 58 61 55 42 23 11 7 15
25 28 28 29 29 45 45 41 36 31 35 42 47 51 52 50 55 73 69 53 57 59 61 51 52 52 57 65 82 67 77 79 76 72 61 77 69 65 59 57 50 31 16 11 14
32 35 35 35 40 42 42 38 37 32 31 51 51 51 54 49 54 57 62 54 54 56 54 49 47 58 59 68 74 73 67 73 68 78 87 78 94 66 62 62 52 39 20 11 16
37 43 45 47 40 43 38 38 36 33 32 47 47 42 53 59 52 63 59 55 55 54 52 52 53 59 64 67 63 61 70 66 59 72 77 79 83 71 62 67 56 39 26 17 19
37 40 46 46 46 42 39 37 35 39 41 44 44 51 54 60 57 57 58 59 46 50 53 48 44 50 56 58 56 58 71 63 59 72 91 77 82 74 73 66 61 49 39 25 25
37 44 50 45 45 40 39 39 41 45 44 49 49 53 54 62 58 66 62 66 69 69 72 56 52 49 56 64 57 74 83 88 88 94 92 70 74 63 57 50 53 51 48 34 30
45 42 46 47 42 40 40 43 45 43 46 46 49 50 54 64 57 65 59 62 63 64 61 68 68 58 58 63 67 74 77 79 90 92 87 69 78 69 53 50 50 48 47 45 50
46 41 42 47 41 40 43 48 42 44 44 52 51 49 53 56 58 62 62 56 56 62 71 63 59 48 55 54 55 66 78 57 69 68 81 73 67 59 53 56 51 51 52 57 70
44 40 44 44 40 40 45 43 40 41 44 46 51 48 53 59 63 66 61 49 54 54 55 52 59 49 51 51 58 57 52 71 71 87 97 84 81 77 69 72 62 62 64 70 77
43 43 43 44 39 44 45 41 40 39 42 46 46 46 48 53 56 55 55 51 49 54 56 52 52 57 55 53 56 58 62 60 60 61 81 92 92 52 61 70 71 69 74 81 84
43 47 44 44 44 43 43 39 37 35 37 38 39 42 46 50 51 49 51 48 43 49 60 48 51 64 62 48 47 50 53 51 67 71 64 71 82 50 57 66 68 74 81 85 86
48 43 40 44 42 44 40 40 36 36 36 35 35 36 40 47 55 47 49 45 40 49 54 49 56 76 68 58 54 56 49 46 53 58 64 78 84 61 64 73 75 80 87 92 93
45 47 45 45 41 45 44 39 40 38 38 36 38 37 40 45 39 50 49 45 38 46 46 45 53 54 64 64 61 65 52 41 46 63 69 66 83 78 77 85 85 87 89 96 95
45 42 41 51 49 49 45 40 44 46 38 37 41 33 41 52 51 46 46 50 46 42 46 51 62 54 51 53 53 58 47 41 41 48 64 83 78 78 77 82 85 88 92 98 98
45 43 43 44 46 45 45 42 42 42 39 44 40 42 35 44 45 56 51 50 52 46 48 52 63 68 71 58 58 64 48 41 40 48 57 67 79 67 65 74 85 88 91 96 102
40 40 45 46 47 48 46 42 44 43 39 38 42 48 43 38 39 43 42 45 43 46 45 49 59 72 80 72 71 63 58 44 50 52 58 72 72 73 78 82 89 91 88 96 101
Wind_Direction
357 2 8 14 18 24 23 14 3 355 356 4 24 47 58 51 30 10 3 327 307 308 60 55 33 37 31 30 33 36 17 10 4 1 357 358 350 350 346 338 338 334 327 324 323
356 358 4 10 12 14 11 348 333 325 332 340 351 49 57 59 47 11 334 324 317 315 27 23 27 26 29 30 28 23 17 11 13 7 358 355 352 348 346 340 336 333 332 328 324
356 358 3 9 11 6 358 311 305 316 327 331 320 55 58 67 40 16 321 318 319 325 47 42 43 36 26 28 23 23 18 17 13 10 4 357 353 355 347 341 339 332 329 330 330
357 356 356 359 1 354 342 315 305 319 329 339 345 45 42 49 27 25 316 309 348 359 33 16 29 28 25 23 24 23 23 18 13 12 4 358 355 352 348 344 346 350 349 344 341
354 349 346 349 354 347 330 319 331 336 338 344 357 38 43 23 25 65 312 338 23 17 15 31 20 30 23 25 26 21 20 16 16 10 7 2 354 353 348 352 356 360 5 11 4
345 350 352 358 350 325 309 322 329 323 327 339 352 40 35 19 64 62 320 22 13 23 20 24 28 32 27 27 23 22 19 14 19 14 13 5 2 2 0 6 11 17 18 25 22
349 351 354 348 326 315 302 296 291 296 299 31 21 40 22 27 45 35 2 30 30 32 26 31 34 31 29 26 21 24 19 15 20 16 11 11 5 7 8 10 12 18 16 26 39
332 334 331 320 317 319 307 304 291 290 61 51 42 40 32 42 34 0 3 36 28 37 39 37 40 34 30 28 25 20 22 11 14 14 17 13 3 9 9 9 4 3 6 18 31
335 327 323 316 311 306 298 273 280 350 38 40 40 37 28 32 17 12 22 26 34 35 32 42 37 31 25 24 21 18 11 10 10 17 11 15 2 6 0 354 342 326 338 346 12
334 326 316 317 312 293 270 201 36 31 27 42 35 37 26 27 30 18 31 28 30 31 35 28 28 24 21 17 12 11 11 10 7 10 11 4 2 359 6 3 355 354 327 269 358
330 322 310 314 311 290 310 33 28 27 15 32 32 39 33 39 40 360 23 29 30 25 18 23 15 16 19 22 21 16 13 8 9 13 10 13 5 11 16 18 13 9 5 26 13
314 314 306 291 298 336 20 22 35 58 30 30 35 36 37 34 22 355 13 21 20 16 22 22 18 22 23 24 16 18 13 11 12 16 12 12 8 23 23 22 21 15 24 17 357
290 299 292 278 306 3 27 36 51 61 31 31 31 28 29 26 24 0 11 20 18 17 19 24 23 23 22 19 13 17 14 11 8 9 22 13 20 22 26 24 24 26 28 14 344
305 309 307 312 20 22 26 37 33 41 25 1 13 17 16 22 19 21 18 21 19 19 23 25 26 20 20 18 16 14 16 7 9 14 13 21 12 21 21 19 22 24 21 351 335
313 323 337 358 25 20 29 26 29 35 22 8 16 25 15 17 16 14 21 20 19 21 24 21 20 18 17 16 17 15 6 8 20 18 16 18 16 18 18 16 16 15 9 349 332
311 317 358 12 19 26 30 34 39 17 9 9 17 11 13 12 16 15 14 20 33 27 25 26 29 26 18 16 20 9 13 20 22 20 14 17 18 15 16 15 15 15 4 347 334
305 338 17 37 23 37 36 29 13 12 9 2 6 6 10 7 12 10 11 6 12 8 9 18 21 25 22 15 20 17 15 11 11 11 10 16 14 8 10 9 6 3 5 4 347
319 31 27 31 37 37 29 15 14 11 6 8 5 5 7 4 11 7 10 7 14 16 11 10 9 18 20 19 13 17 20 16 6 5 5 12 11 12 15 11 7 5 3 359 346
9 23 29 25 35 37 23 10 16 12 9 3 5 7 6 7 8 5 4 10 14 16 9 8 9 20 20 21 21 15 14 21 11 11 7 10 8 2 15 8 2 356 356 348 346
12 14 15 24 30 27 13 14 16 14 13 12 6 9 4 1 1 360 3 13 12 16 18 12 4 16 17 19 21 17 24 11 13 6 2 5 6 3 6 4 2 358 352 347 343
9 1 12 16 23 10 10 14 13 15 15 10 8 5 4 3 4 4 4 9 12 10 13 13 10 7 10 11 9 11 10 15 14 11 3 2 1 7 1 359 357 352 351 346 343
2 349 7 13 2 7 7 12 18 22 21 19 17 13 3 3 2 6 4 6 14 13 4 12 5 358 1 10 13 10 6 9 5 3 4 0 358 5 357 354 352 348 345 346 345
349 352 9 5 358 360 6 5 12 12 13 17 17 16 10 1 356 1 1 7 12 6 5 7 1 353 359 5 5 360 2 3 5 4 356 358 355 359 356 353 348 345 347 347 346
347 341 351 358 360 355 356 360 360 2 2 7 5 10 7 360 360 354 354 0 4 1 5 6 357 351 347 347 352 347 350 353 356 355 355 346 341 343 346 348 346 347 348 348 347
342 341 348 336 342 345 348 352 351 349 355 358 357 357 359 354 352 354 353 352 355 359 359 356 346 345 338 331 332 333 333 338 334 340 345 348 345 337 339 342 344 345 347 347 348
332 336 339 339 340 341 342 343 345 348 349 346 346 350 348 346 347 343 347 347 348 353 351 352 346 346 343 349 350 342 336 334 330 330 326 323 327 330 336 347 347 347 348 348 349
334 335 330 329 331 332 335 339 339 342 343 343 340 340 337 333 339 343 343 342 341 343 345 348 346 346 343 348 344 351 354 351 350 348 344 343 341 351 346 348 349 348 349 350 350